User: anonymous   Login
Location: Unspecified
(0.0000°N, 0.0000°E)
Time: 22:23:22
(UTC+00:00)
Language:

Tandem-X - Orbit

View from above orbital plane
View from above orbital plane
View from above satellite
View from above satellite

Ground track
Ground track

The orbit data is extracted from the following two-line orbital elements,

1 36605U 10030A   19202.90903522  .00000140  00000-0  98486-5 0  9993
2 36605  97.4465 209.6627 0001481  89.8247 330.5966 15.19146072503704
Epoch (UTC): 21 July 2019 21:49:00
Eccentricity: 0.0001481
inclination: 97.4465°
perigee height: 507 km
apogee height: 509 km
right ascension of ascending node: 209.6627°
argument of perigee: 89.8247°
revolutions per day: 15.19146072
mean anomaly at epoch: 330.5966°
orbit number at epoch: 50370

The dashed part of the orbit path shows where the satellite is in the earth's shadow,  

DLR